Kodiak, AK

7:11 PM AKST on February 23, 2017 (GMT -0900)
Kodiak

Weather History for PADQ - August, 2013

Change the Weather History Date:

Saturday, August 24, 2013

  Actual Average Record
Temperature  
Mean Temperature 62 °F 55 °F  
Max Temperature 69 °F 61 °F 78 °F (1959)
Min Temperature 54 °F 48 °F 39 °F (2009)
Degree Days  
Heating Degree Days 3 10  
Month to date heating degree days 214 226  
Since 1 June heating degree days 756 1013  
Since 1 July heating degree days 425 552  
Cooling Degree Days 0    
Month to date cooling degree days 0  
Year to date cooling degree days 6  
Since 1 June cooling degree days 6  
Growing Degree Days 12 (Base 50)    
Moisture  
Dew Point 44 °F    
Average Humidity 0    
Maximum Humidity 0    
Minimum Humidity 0    
Precipitation  
Precipitation 0.00 in 0.16 in 1.90 in (1950)
Month to date precipitation 6.71 3.39  
Year to date precipitation 37.32 45.62  
Snow  
Snow 0.00 in 0.00 in 0.00 in (2016)
Month to date snowfall 0.0 0.0  
Since 1 June snowfall 0.0 0.0  
Since 1 July snowfall 0.0 0.0  
Snow Depth 0.00 in    
Sea Level Pressure  
Sea Level Pressure 29.67 in    
Wind  
Wind Speed 14 mph (NW)    
Max Wind Speed 15 mph    
Max Gust Speed 18 mph    
Visibility 10 miles    
Events      
T = Trace of Precipitation, MM = Missing Value Source: NWS Daily Summary

Daily Weather History Graph

Daily Weather History Graph

Search for Another Location

Airport or City:

Trip Planner

Search our weather history database for the weather conditions in past years. The results will help you decide how hot, cold, wet, or windy it might be!

Date:

Astronomy

Aug. 24, 2013 Rise Set
Actual Time 6:54 AM AKDT 9:28 PM AKDT
Civil Twilight 6:10 AM AKDT 10:11 PM AKDT
Nautical Twilight 5:13 AM AKDT 11:08 PM AKDT
Astronomical Twilight 3:57 AM AKDT 12:22 AM AKDT
Moon 10:18 PM AKDT 12:11 PM AKDT
Length of Visible Light 16h 00m
Length of Day
14h 33m
Waning Gibbous, 83% of the Moon is Illuminated
Aug 24
Waning Gibbous
Aug 28
Last Quarter
Sep 5
New
Sep 12
First Quarter
Sep 19
Full

Hourly Weather History & Observations

Time (AKDT) Temp. Dew Point Humidity Pressure Visibility Wind Dir Wind Speed Gust Speed Precip Events Conditions
12:53 AM 57.0 °F 45.0 °F 64% 29.64 in 10.0 mi North 3.5 mph - N/A   Mostly Cloudy
1:53 AM 55.9 °F 45.0 °F 67% 29.64 in 10.0 mi NNE 5.8 mph - N/A   Mostly Cloudy
2:53 AM 55.9 °F 43.0 °F 62% 29.64 in 10.0 mi WNW 12.7 mph - N/A   Mostly Cloudy
3:53 AM 55.9 °F 43.0 °F 62% 29.63 in 10.0 mi NW 13.8 mph - N/A   Scattered Clouds
4:53 AM 57.0 °F 43.0 °F 59% 29.62 in 10.0 mi WNW 16.1 mph 23.0 mph N/A   Clear
5:53 AM 57.0 °F 43.0 °F 59% 29.62 in 10.0 mi WNW 18.4 mph 28.8 mph N/A   Clear
6:53 AM 57.0 °F 43.0 °F 59% 29.62 in 10.0 mi WNW 21.9 mph 27.6 mph N/A   Clear
7:53 AM 57.9 °F 43.0 °F 58% 29.64 in 10.0 mi WNW 17.3 mph 27.6 mph N/A   Clear
8:53 AM 60.1 °F 43.0 °F 53% 29.64 in 10.0 mi WNW 20.7 mph - N/A   Partly Cloudy
9:53 AM 61.0 °F 44.1 °F 54% 29.65 in 10.0 mi WNW 15.0 mph 23.0 mph N/A   Partly Cloudy
10:53 AM 63.0 °F 44.1 °F 50% 29.65 in 10.0 mi WNW 19.6 mph 32.2 mph N/A   Partly Cloudy
11:53 AM 64.9 °F 44.1 °F 47% 29.66 in 10.0 mi WNW 16.1 mph - N/A   Clear
12:53 PM 66.0 °F 44.1 °F 45% 29.68 in 10.0 mi NW 17.3 mph 23.0 mph N/A   Partly Cloudy
1:53 PM 66.9 °F 44.1 °F 44% 29.67 in 10.0 mi NW 18.4 mph 24.2 mph N/A   Clear
2:53 PM 68.0 °F 44.1 °F 42% 29.68 in 10.0 mi NW 20.7 mph 26.5 mph N/A   Partly Cloudy
3:53 PM 68.0 °F 44.1 °F 42% 29.69 in 10.0 mi NW 16.1 mph 24.2 mph N/A   Partly Cloudy
4:53 PM 69.1 °F 44.1 °F 40% 29.70 in 10.0 mi WNW 11.5 mph 25.3 mph N/A   Partly Cloudy
5:53 PM 69.1 °F 45.0 °F 42% 29.70 in 10.0 mi WNW 11.5 mph - N/A   Partly Cloudy
6:53 PM 68.0 °F 44.1 °F 42% 29.70 in 10.0 mi WNW 9.2 mph - N/A   Scattered Clouds
7:53 PM 66.0 °F 45.0 °F 47% 29.70 in 10.0 mi West 5.8 mph - N/A   Scattered Clouds
8:53 PM 63.0 °F 44.1 °F 50% 29.72 in 10.0 mi Calm Calm - N/A   Scattered Clouds
9:53 PM 60.1 °F 43.0 °F 53% 29.73 in 10.0 mi NW 12.7 mph - N/A   Scattered Clouds
10:53 PM 59.0 °F 43.0 °F 55% 29.74 in 10.0 mi NNW 9.2 mph - N/A   Scattered Clouds
11:53 PM 59.0 °F 42.1 °F 53% 29.74 in 10.0 mi NW 11.5 mph - N/A   Scattered Clouds